Station BABT2 - 8776604 - Baffin Bay, TX Image indicating link to RSS feed of recent meteorological observations for station BABT2


Conditions at BABT2 as of
(5:48 am CDT)
1048 GMT on 07/21/2024:
     

Click on the graph icon in the table below to see a time series plot of the last five days of that observation.

5-day plot - Wind Direction Wind Direction (WDIR):SSE ( 150 deg true )
5-day plot - Wind Speed Wind Speed (WSPD): 8.0 kts
5-day plot - Wind Gust Wind Gust (GST): 11.1 kts
5-day plot - Atmospheric Pressure Atmospheric Pressure (PRES):29.94 in
5-day plot - Air Temperature Air Temperature (ATMP): 82.8 °F
5-day plot - Water Temperature Water Temperature (WTMP): 88.2 °F
5-day plot - Wind Speed at 10 Meters Wind Speed at 10 meters (WSPD10M): 9.7 kts
5-day plot - Wind Speed at 20 Meters Wind Speed at 20 meters (WSPD20M): 9.7 kts
5-day plot -  Wind Speed, Wind Gust and Atmospheric Pressure Combined plot of Wind Speed, Gust, and Air Pressure
Previous observations
TIME
(CDT)
5-day plot - Wind Direction
WDIR
 
5-day plot - Wind Speed
WSPD
kts
5-day plot - Wind Gust
GST
kts
5-day plot - Wave Height
WVHT
ft
5-day plot - Dominant Wave Period
DPD
sec
5-day plot - Average Wave Period
APD
sec
5-day plot - Mean Wave Direction
MWD
 
5-day plot - Atmospheric Pressure
PRES
in
5-day plot - Pressure Tendency
PTDY
in
5-day plot - Air Temperature
ATMP
°F
5-day plot - Water Temperature
WTMP
°F
5-day plot - Dew Point
DEWP
°F
5-day plot - Salinity
SAL
psu
5-day plot - Visibility
VIS
nmi
5-day plot - Tide (above MLLW)
TIDE
ft
2024-07-21 05:42 amSSE 9.9 12.0----29.93- 82.8 88.2----
2024-07-21 05:36 amSSE 11.1 13.0----29.93- 82.8 88.2----
2024-07-21 05:30 amSSE 9.9 12.0----29.93- 82.8 88.2----
2024-07-21 05:24 amSSE 11.1 12.0----29.93- 82.8 88.2----
2024-07-21 05:18 amSSE 8.9 11.1----29.93- 82.8 88.2----
2024-07-21 05:12 amSSE 8.9 11.1----29.93- 82.8 88.3----
2024-07-21 05:06 amSSE 8.0 12.0----29.93- 82.9 88.3----
2024-07-21 05:00 amSSE 8.0 12.0----29.93-0.03 82.9 88.3----
2024-07-21 04:54 amSSE 11.1 13.0----29.94- 82.9 88.3----
2024-07-21 04:48 amSSE 11.1 13.0----29.94- 82.9 88.3----
2024-07-21 04:42 amSSE 11.1 13.0----29.94- 82.9 88.3----
2024-07-21 04:36 amSSE 8.9 13.0----29.94- 82.9 88.3----
2024-07-21 04:30 am-------29.94- 82.9 88.3----
2024-07-21 04:24 am-------29.94- 82.9 88.3----
2024-07-21 04:18 amSSE 9.9 12.0----29.94- 82.8 88.3----
2024-07-21 04:12 amSSE 9.9 13.0----29.94- 82.8 88.3----
2024-07-21 04:06 amSSE 11.1 12.0----29.94- 82.8 88.3----
2024-07-21 04:00 amSSE 9.9 13.0------ 82.9 88.3----
2024-07-21 03:54 amSSE 12.0 14.0------ 83.1 88.3----
2024-07-21 03:48 amSSE 12.0 13.0----29.94- 83.1 88.3----
2024-07-21 03:42 amSSE 11.1 14.0----29.94- 83.1 88.5----
2024-07-21 03:36 amSSE 12.0 15.0----29.94- 83.3 88.5----
2024-07-21 03:30 amSSE 12.0 14.0----29.94- 83.3 88.5----
2024-07-21 03:24 amSSE 11.1 14.0----29.95- 83.5 88.5----
2024-07-21 03:18 amSSE 11.1 13.0----29.95- 83.3 88.5----
2024-07-21 03:12 am SE 12.0 13.0----29.95- 83.5 88.7----
2024-07-21 03:06 amSSE 12.0 13.0----29.95- 83.5 88.7----
2024-07-21 03:00 amSSE 12.0 15.0----29.95-0.03 83.5 88.7----
2024-07-21 02:54 amSSE 11.1 14.0----29.96- 83.5 88.7----
2024-07-21 02:48 amSSE 12.0 14.0----29.96- 83.7 88.7----
2024-07-21 02:42 amSSE 11.1 13.0----29.96- 83.7 88.7----
2024-07-21 02:36 amSSE 11.1 13.0----29.96- 83.8 88.9----
2024-07-21 02:30 amSSE 11.1 13.0----29.96- 83.7 89.1----
2024-07-21 02:24 amSSE 9.9 12.0----29.96- 83.7 89.1----
2024-07-21 02:18 amSSE 8.9 12.0----29.96- 83.7 89.2----
2024-07-21 02:12 am SE 9.9 13.0----29.97- 83.8 89.2----
2024-07-21 02:06 am SE 9.9 12.0----29.97- 83.8 89.2----
2024-07-21 02:00 am SE 11.1 14.0----29.97-0.01 83.8 89.2----
2024-07-21 01:54 am SE 12.0 15.0----29.97- 83.8 89.2----
2024-07-21 01:48 am SE 12.0 15.0----29.97- 84.0 89.2----
2024-07-21 01:42 am SE 11.1 13.0----29.97- 84.0 89.2----
2024-07-21 01:36 am SE 12.0 15.0----29.97- 84.2 89.2----
2024-07-21 01:30 am SE 11.1 14.0----29.97- 84.2 89.2----
2024-07-21 01:24 am SE 12.0 14.0----29.97- 84.2 89.2----
2024-07-21 01:18 am SE 9.9 12.0----29.97-- 89.2----
2024-07-21 01:12 am SE 11.1 14.0----29.97-- 89.2----
2024-07-21 01:06 am SE 12.0 14.0----29.97-- 89.2----
2024-07-21 01:00 am SE 11.1 14.0----29.97+0.03- 89.4----
2024-07-21 12:54 am SE 12.0 14.0----29.97-- 89.6----
2024-07-21 12:48 am SE 11.1 13.0----29.98- 84.2 89.6----
2024-07-21 12:42 am SE 11.1 14.0----29.98- 84.4 89.6----
2024-07-21 12:36 am SE 9.9 13.0----29.98- 84.2 89.6----
2024-07-21 12:30 am SE 9.9 13.0----29.98-- 89.6----
2024-07-21 12:24 am SE 11.1 13.0----29.98-- 89.6----
2024-07-21 12:18 am SE 9.9 13.0----29.98- 84.4 89.6----
2024-07-21 12:12 am SE 11.1 13.0----29.98- 84.2 89.6----
2024-07-21 12:06 am SE 9.9 11.1----29.98- 84.2 89.6----
2024-07-21 12:00 am SE 8.9 12.0----29.98+0.04 84.2 89.6----
2024-07-20 11:54 pm SE 8.0 11.1----29.98- 84.4 89.6----
2024-07-20 11:48 pm SE 8.0 11.1----29.98- 84.4 89.6----
2024-07-20 11:42 pm SE 8.9 11.1----29.98- 84.4 89.6----
2024-07-20 11:36 pm SE 8.0 12.0----29.98- 84.6 89.6----
2024-07-20 11:30 pm-------29.98- 84.7 89.6----
2024-07-20 11:24 pm-------29.98- 84.7 89.6----
2024-07-20 11:18 pm-------29.98- 84.7 89.6----
2024-07-20 11:12 pm-------29.98- 84.4 89.6----
2024-07-20 11:06 pm-------29.98- 84.4 89.6----
2024-07-20 11:00 pm SE 8.9 12.0----29.98+0.04 84.6 89.6----
2024-07-20 10:54 pmESE 9.9 14.0----29.97- 84.6 89.8----
2024-07-20 10:48 pm SE 9.9 12.0----29.97- 84.6 89.8----
2024-07-20 10:42 pm SE 8.9 12.0----29.96- 84.4 89.8----
2024-07-20 10:36 pm SE 11.1 13.0----29.96- 84.4 89.8----
2024-07-20 10:30 pm--------- 84.6 89.8----
2024-07-20 10:24 pm--------- 84.6 89.8----
2024-07-20 10:18 pm SE 12.0 15.0----29.95-- 89.8----
2024-07-20 10:12 pm SE 12.0 15.0----29.95-- 89.8----
2024-07-20 10:06 pm SE 12.0 15.0----29.94-- 89.8----
2024-07-20 10:00 pm SE 11.1 17.1----29.95+0.02 84.7 90.0----
2024-07-20 09:54 pmESE 14.0 17.1----29.95- 84.7 90.0----
2024-07-20 09:48 pmESE 13.0 15.9----29.94- 84.7 90.0----
2024-07-20 09:42 pmESE 14.0 17.1----29.94- 84.7 90.0----
2024-07-20 09:36 pmESE 13.0 15.9----29.94- 84.9 90.0----
2024-07-20 09:30 pmESE 13.0 17.1----29.94- 84.7 90.5----
2024-07-20 09:24 pmESE 14.0 17.1----29.95- 84.7 90.5----
2024-07-20 09:18 pmESE 14.0 17.1----29.94- 84.7 90.5----
2024-07-20 09:12 pmESE 12.0 15.0----29.95- 84.7 90.5----
2024-07-20 09:06 pmESE 13.0 15.9----29.95- 84.9 90.5----
2024-07-20 09:00 pmESE 12.0 15.9----29.95+0.00 84.9-----
2024-07-20 08:54 pmESE 12.0 15.9----29.95- 84.9-----
2024-07-20 08:48 pmESE 12.0 15.0----29.95- 85.1 90.5----
2024-07-20 08:42 pmESE 12.0 15.9----29.94- 84.9 90.5----
2024-07-20 08:36 pmESE 12.0 15.0----29.94- 85.1 90.7----
2024-07-20 08:30 pmESE 13.0 17.1----29.94-- 90.7----
2024-07-20 08:24 pmESE 13.0 17.1----29.94-- 90.7----
2024-07-20 08:18 pmESE 13.0 15.9----29.94- 85.1 90.9----
2024-07-20 08:12 pmESE 13.0 15.9----29.93- 85.3 91.2----
2024-07-20 08:06 pmESE 12.0 14.0----29.94- 85.3 91.2----
2024-07-20 08:00 pm E 11.1 15.0----29.93-0.02 85.5 91.2----
2024-07-20 07:54 pmESE 13.0 17.1----29.93- 85.5 91.4----
2024-07-20 07:48 pmESE 9.9 15.9----29.93- 85.6 91.4----
2024-07-20 07:42 pmESE 14.0 17.1----29.92- 85.5 91.4----
2024-07-20 07:36 pmESE 13.0 17.1----29.92- 85.5 91.4----
2024-07-20 07:30 pmESE 14.0 17.1----29.92- 85.5 91.4----
2024-07-20 07:24 pmESE 13.0 17.1----29.93- 85.5 91.4----
2024-07-20 07:18 pm E 12.0 15.9----29.93- 85.3 91.8----
2024-07-20 07:12 pm E 11.1 15.0----29.93- 85.6 91.8----
2024-07-20 07:06 pm E 11.1 15.0----29.93- 85.8 91.8----
2024-07-20 07:00 pm E 12.0 14.0----29.93-0.04 85.8 91.8----
2024-07-20 06:54 pm E 12.0 15.9----29.93- 85.8 91.8----
2024-07-20 06:48 pm E 13.0 15.9----29.93- 85.6 91.9----
2024-07-20 06:42 pm E 12.0 15.0----29.93- 86.2 92.3----
2024-07-20 06:36 pm E 12.0 15.0----29.94- 86.2 92.3----
2024-07-20 06:30 pm E 12.0 15.0----29.94- 86.5 92.3----
2024-07-20 06:24 pm E 11.1 17.1----29.94- 86.5 92.3----
2024-07-20 06:18 pm E 12.0 15.0----29.94- 86.0 92.3----
2024-07-20 06:12 pm E 12.0 15.9----29.94- 86.4 92.3----
2024-07-20 06:06 pm E 13.0 15.9----29.95- 86.0 92.3----
2024-07-20 06:00 pm E 13.0 17.1----29.95- 86.4 92.3----
2024-07-20 05:54 pm E 13.0 17.1----29.95- 86.5 92.3----
2024-07-20 05:48 pm E 15.0 17.1----29.95- 86.4 92.3----
2024-07-20 05:42 pm E 12.0 15.9----29.95- 86.5 92.3----
2024-07-20 05:36 pm E 13.0 17.1----29.94- 86.4 92.3----
2024-07-20 05:30 pm E 15.0 18.1----29.94-- 92.3----
2024-07-20 05:24 pm E 12.0 15.0----29.95-- 92.7----
2024-07-20 05:18 pm E 12.0 15.0----29.95- 86.5 92.7----
2024-07-20 05:12 pmESE 12.0 15.9----29.95- 86.2 92.7----
2024-07-20 05:06 pmESE 11.1 15.0----29.95- 85.8 92.7----
2024-07-20 05:00 pm E 12.0 15.0----29.96-0.03 85.8 92.8----
2024-07-20 04:54 pmESE 11.1 15.9----29.96- 85.8 93.4----
2024-07-20 04:48 pm E 14.0 15.9----29.96- 85.5 93.4----
2024-07-20 04:42 pm E 13.0 15.9----29.96- 85.5 93.4----
2024-07-20 04:36 pm E 12.0 15.0----29.96- 85.6 93.4----
2024-07-20 04:30 pm E 13.0 15.0----29.96-- 93.4----
2024-07-20 04:24 pm E 12.0 15.9----29.96-- 93.6----
2024-07-20 04:18 pm E 14.0 15.9----29.96- 85.3 93.6----
2024-07-20 04:12 pm E 12.0 15.9----29.97- 85.6 93.6----
2024-07-20 04:06 pm E 13.0 17.1----29.97- 85.6 93.6----
2024-07-20 04:00 pm E 13.0 17.1----29.97-0.03- 93.6----
2024-07-20 03:54 pm E 14.0 17.1----29.97-- 93.6----
2024-07-20 03:48 pm E 14.0 17.1----29.97-- 93.6----
2024-07-20 03:42 pm E 14.0 15.9----29.98-- 93.7----
2024-07-20 03:36 pm E 14.0 17.1----29.98-- 93.9----
2024-07-20 03:30 pm E 15.0 18.1----29.98- 85.5 93.9----
2024-07-20 03:24 pm E 15.0 18.1----29.96- 85.6 93.9----
2024-07-20 03:18 pm E 15.0 18.1----29.96- 85.6 93.9----
2024-07-20 03:12 pm E 15.0 17.1----29.97- 85.8 94.1----
2024-07-20 03:06 pm E 15.0 18.1----29.98- 85.5 94.1----
2024-07-20 03:00 pm E 14.0 17.1------ 85.5 94.1----
2024-07-20 02:54 pm E 14.0 19.0------ 85.6 94.1----
2024-07-20 02:48 pm E 15.9 19.0----29.97-- 94.1----
2024-07-20 02:42 pm E 15.9 19.0----29.97-- 94.3----
2024-07-20 02:36 pm E 15.9 19.0----29.97-- 94.3----
2024-07-20 02:30 pm E 15.9 18.1----29.97- 86.5 94.3----
2024-07-20 02:24 pm E 15.0 18.1----29.98- 86.9 94.3----
2024-07-20 02:18 pm E 15.0 19.0----29.98- 86.4-----
2024-07-20 02:12 pm E 15.0 18.1----29.98- 86.4-----
2024-07-20 02:06 pmENE 13.0 15.9----29.98- 86.5-----
2024-07-20 02:00 pm E 13.0 18.1----29.99+0.00 86.5 93.4----
2024-07-20 01:54 pm E 12.0 14.0----29.99- 86.9 93.4----
2024-07-20 01:48 pmENE 12.0 15.9----29.99-------
2024-07-20 01:42 pm E 13.0 15.0----29.99-------
2024-07-20 01:36 pm E 11.1 14.0----30.00-------
2024-07-20 01:30 pmENE 9.9 12.0----30.00- 86.9 93.0----
2024-07-20 01:24 pm E 9.9 12.0----30.00- 87.1 92.8----
2024-07-20 01:18 pmENE 8.9 11.1----30.00- 86.7 92.8----
2024-07-20 01:12 pm E 7.0 8.0----30.00- 87.4 92.7----
2024-07-20 01:06 pmESE 4.1 8.0----30.00- 87.1 92.5----
2024-07-20 01:00 pm E 5.1 8.0----30.00+0.00 87.4 92.3----
2024-07-20 12:54 pm E 6.0 8.0----30.00- 87.4 92.3----
2024-07-20 12:48 pm E 5.1 8.0----30.00- 86.9 92.1----
2024-07-20 12:42 pm E 6.0 8.9----30.00- 86.9 92.1----
2024-07-20 12:36 pm E 5.1 7.0----30.00- 86.9 91.9----
2024-07-20 12:30 pm E 6.0 8.9----30.01- 86.9 91.8----
2024-07-20 12:24 pm E 6.0 9.9----30.01- 87.6 91.6----
2024-07-20 12:18 pm E 5.1 8.0----30.01- 87.1 91.6----
2024-07-20 12:12 pm SE 5.1 6.0----30.01- 87.1 91.6----
2024-07-20 12:06 pm SE 4.1 6.0----30.01- 86.7 91.2----
2024-07-20 12:00 pm SE 4.1 6.0----30.00+0.00 86.4 91.2----
2024-07-20 11:54 am SE 5.1 7.0----30.00- 86.4 91.0----
2024-07-20 11:48 am SE 5.1 6.0----30.00-- 90.9----
2024-07-20 11:42 amESE 2.9 5.1----30.00-- 90.7----
2024-07-20 11:36 am SE 4.1 5.1----30.00-- 90.7----
2024-07-20 11:30 am SE 5.1 7.0----30.00- 86.0 90.5----
2024-07-20 11:24 am SE 6.0 8.0----30.00- 86.0 90.3----
2024-07-20 11:18 am SE 6.0 7.0----30.00- 85.6 90.3----
2024-07-20 11:12 am SE 6.0 7.0----29.99- 85.5 90.1----
2024-07-20 11:06 am SE 6.0 8.0----29.99- 85.1 90.0----
2024-07-20 11:00 am SE 7.0 8.0----29.99+0.00- 89.8----
2024-07-20 10:54 am SE 5.1 7.0----29.99-- 89.8----
2024-07-20 10:48 am SE 6.0 8.0----29.99-- 89.8----
2024-07-20 10:42 am SE 6.0 8.0----29.99-- 89.6----
2024-07-20 10:36 am SE 6.0 8.0----29.99-- 89.4----
2024-07-20 10:30 am SE 5.1 7.0----29.99- 84.2 89.4----
2024-07-20 10:24 am SE 6.0 8.0----29.99- 83.8 89.4----
2024-07-20 10:18 am SE 5.1 7.0----29.99- 84.0 89.2----
2024-07-20 10:12 am SE 5.1 7.0----29.99- 84.2 89.4----
2024-07-20 10:06 amESE 4.1 5.1----30.00- 84.2 89.2----
2024-07-20 10:00 am SE 4.1 5.1----30.00+0.02 84.2 89.1----
2024-07-20 09:54 am SE 4.1 7.0----30.00- 84.2 88.9----
2024-07-20 09:48 amSSE 5.1 7.0----30.00-- 88.7----
2024-07-20 09:42 am S 5.1 6.0----30.00-- 88.7----
2024-07-20 09:36 amSSE 5.1 6.0----30.00-- 88.5----
2024-07-20 09:30 am S 4.1 5.1----30.00- 83.5 88.5----
2024-07-20 09:24 am S 1.9 4.1----30.00- 83.5 88.5----
2024-07-20 09:18 am S 2.9 4.1----30.00- 83.3 88.5----
2024-07-20 09:12 amSSW 2.9 4.1----30.00- 83.1 88.5----
2024-07-20 09:06 amSSW 2.9 4.1----30.00- 83.3 88.7----
2024-07-20 09:00 am S 4.1 4.1----30.00+0.03- 88.7----
2024-07-20 08:54 am S 1.9 4.1----30.00-- 88.5----
2024-07-20 08:48 am S 1.9 2.9----30.00- 83.3 88.5----
2024-07-20 08:42 am S 1.9 4.1----30.00- 83.3 88.5----
2024-07-20 08:36 am S 2.9 4.1----30.00- 83.1 88.5----
2024-07-20 08:30 am S 4.1 5.1----30.00- 82.9 88.5----
2024-07-20 08:24 am S 2.9 4.1----30.00- 82.8 88.5----
2024-07-20 08:18 am S 4.1 6.0----30.00- 82.8 88.5----
2024-07-20 08:12 am S 5.1 6.0----29.99- 82.6 88.5----
2024-07-20 08:06 am S 5.1 6.0----29.99- 82.6 88.5----
2024-07-20 08:00 am S 5.1 6.0----29.99+0.05 82.4 88.5----
2024-07-20 07:54 am S 5.1 7.0----29.99- 82.6 88.5----
2024-07-20 07:48 am S 6.0 7.0----29.98- 82.6 88.3----
2024-07-20 07:42 am S 5.1 8.0----29.99- 82.6 88.3----
2024-07-20 07:36 amSSE 5.1 7.0----29.99- 82.2 88.3----
2024-07-20 07:30 am S 5.1 7.0----29.99- 82.4 88.3----
2024-07-20 07:24 am S 5.1 7.0----29.99- 82.4 88.3----
2024-07-20 07:18 am S 5.1 7.0----29.98-- 88.3----
2024-07-20 07:12 am S 6.0 7.0----29.98-- 88.3----
2024-07-20 07:06 am S 7.0 8.0----29.98-- 88.5----
2024-07-20 07:00 am S 6.0 8.0----29.98+0.02 82.0 88.5----
2024-07-20 06:54 am S 7.0 8.0----29.98- 82.0 88.5----
2024-07-20 06:48 am S 7.0 8.0----29.98-------
2024-07-20 06:42 am S 7.0 8.0----29.97-------
2024-07-20 06:36 am S 7.0 8.9----29.96-------
2024-07-20 06:30 am S 6.0 7.0----29.97- 82.2 88.3----
2024-07-20 06:24 am S 6.0 8.0----29.97- 82.4 88.5----
2024-07-20 06:18 am S 8.0 8.9----29.97- 82.4 88.5----
2024-07-20 06:12 am S 8.0 8.9----29.97- 82.2 88.5----
2024-07-20 06:06 am S 8.0 9.9----29.97- 82.4 88.5----
2024-07-20 06:00 am-------29.96+0.01 82.4 88.5----
2024-07-20 05:54 am-------29.96- 82.4 88.5----